Regional Weather Roundup
Issued by NWS Jackson, KY

Home | Current Version | Previous Version | Text Only | Print | Product List | Glossary On
Versions: 1 2 3 4 5 6 7 8 9 10 11 12 13 14 15 16 17 18 19 20 21 22 23 24 25 26 27 28 29 30 31 32 33 34 35 36 37 38 39 40 41 42 43 44 45 46 47 48 49 50
000
ASUS43 KJKL 221119
RWRJKL

EAST KENTUCKY HOURLY WEATHER ROUNDUP
NATIONAL WEATHER SERVICE JACKSON KY
700 AM EDT FRI AUG 22 2014

NOTE: "FAIR" INDICATES FEW OR NO CLOUDS BELOW 12,000 FEET WITH
NO SIGNIFICANT WEATHER AND/OR OBSTRUCTIONS TO VISIBILITY.

* THESE REPORTS ARE NOT UNDER NWS QUALITY CONTROL AND MAY NOT
  REPORT WEATHER SUCH AS PRECIPITATION AND FOG.

KYZ079-080-083-085-087-088-110-112-115-119-120-221200
...EASTERN KENTUCKY...

CITY           SKY/WX    TMP DP  RH WIND       PRES   REMARKS
JACKSON        MOCLDY    72  69  90 CALM      30.08R
LONDON         PTCLDY    72  68  87 S5        30.09S
SOMERSET*      PTCLDY    70  70 100 SE3       30.08S
MONTICELLO*    MOCLDY    69  68  97 CALM      30.10R FOG
MIDDLESBORO*   FOG       69  69 100 CALM      30.11R VSB 1/2
HARLAN APT*    CLOUDY    68  66  94 MISG      30.13R VSB<1/4
HAZARD APT*    SUNNY     73  72  94 SW5       30.08S
BLACK MTN*       N/A     66  66 100 CALM        N/A
PIKEVILLE APT* PTCLDY    73  70  88 CALM      30.09R
BIG SANDY*     CLOUDY    70  70  99 CALM      30.07R
MOREHEAD APT*  CLOUDY    73  72  94 SW6       30.07R
ASHLAND*       MOCLDY    72  68  88 CALM      30.02R
$$

KYZ035-036-041-042-044-050-067-078-099-221200
...CENTRAL KENTUCKY...

CITY           SKY/WX    TMP DP  RH WIND       PRES   REMARKS
MT STERLING*   MOCLDY    73  72  94 SW5       30.06R
FLEMING/MASON* CLEAR     70  70 100 S6        30.04R
DANVILLE*      CLEAR     72  70  94 S5        30.07R
RICHMOND*      CLEAR     73  70  88 SW6       30.05S
LEXINGTON      PTCLDY    74  70  87 SW10      30.03S
FRANKFORT      CLEAR     72  70  93 SW7       30.01S
$$

KYZ091>093-OHZ055-061-077-WVZ005-015-034-035-042-221200
...SOUTHERN OHIO/WEST VIRGINIA...

CITY           SKY/WX    TMP DP  RH WIND       PRES   REMARKS
COVINGTON      MOCLDY    73  70  90 SW6       30.00R
COLUMBUS       MOCLDY    70  67  90 CALM      30.00R FOG
DAYTON         TSTM      71  68  90 SW3       30.02R FOG
WILMINGTON     CLOUDY    70  67  90 SW5       30.01R
HUNTINGTON     CLOUDY    70  70 100 S3        30.03R
CHARLESTON     LGT RAIN  70  70 100 S6        30.04R
PINEVILLE*     CLOUDY    68  68 100 MISG      30.17R
BECKLEY        LGT RAIN  67  65  93 SE3       30.14F
BLUEFIELD      MOCLDY    69  66  90 W7        30.16R
$$

VAZ002-007-008-TNZ017-027-036-066-071-221200
...SOUTHWEST VIRGINIA/EAST TENNESSEE...

CITY           SKY/WX    TMP DP  RH WIND       PRES   REMARKS
WISE*          MOCLDY    70  70 100 SW5       30.18R
JONESVILLE*      N/A     64  64 100 CALM      30.15R
ABINGDON*      FOG       68  68 100 CALM      30.16S VSB<1/4
BRISTOL        FOG       69  67  93 CALM      30.13R VSB 1
KNOXVILLE      PTCLDY    73  69  87 W3        30.09R
OAK RIDGE      PTCLDY    71  70  96 CALM      30.11R
CROSSVILLE     PTCLDY    69  66  90 CALM      30.15R
NASHVILLE      PTCLDY    74  72  93 S5        30.07R
$$

...KEY TO REMARKS...
VSB - VISIBILITY IN MILES
WCI - WIND CHILL INDEX
HX  - HEAT INDEX

$$



USA.gov is the U.S. government's official web portal to all federal, state and local government web resources and services.